SCP
0 0 0 0 0 0 0 0 0 0 0 0 0 0 0 0 0 0 0 0 0 0 0 0 0 0 0 0 0 0 0 0 0 0 0 0 0 0 0 0 0 0 0 0
0 0 0 0 0 0 0 0 0 0 0 0 0 0 0 0 0 0 0 0 0 0 0 0 1 1 1 0 0 0 0 0 0 0 0 0 0 0 0 0 0 0 0 0
0 0 0 0 0 0 0 0 0 0 0 0 0 0 0 0 0 0 0 0 0 0 0 1 1 1 1 1 0 0 0 0 0 0 0 0 0 0 0 0 0 0 0 0
0 0 0 0 0 0 0 0 0 0 0 0 0 0 0 0 0 0 0 0 0 0 0 1 1 1 1 1 1 1 1 0 0 0 0 0 0 0 0 0 0 0 0 0
0 0 0 0 0 0 0 0 0 0 0 0 0 0 0 0 0 0 0 0 0 0 1 1 1 1 1 1 1 1 1 1 1 0 0 0 0 0 0 0 0 0 0 0
0 0 0 0 0 0 0 0 0 0 0 0 0 0 0 0 0 0 0 0 0 0 1 1 1 1 1 1 1 1 1 1 1 1 0 0 0 0 0 0 0 0 0 0
0 0 0 0 0 0 0 0 0 0 0 0 0 0 0 0 0 0 0 0 1 1 1 1 1 1 1 1 1 1 1 1 1 1 0 0 0 0 0 0 0 0 0 0
0 0 0 0 0 0 0 0 0 0 0 0 0 0 0 0 0 0 0 1 1 1 1 1 1 1 1 1 1 1 1 1 1 1 1 0 0 0 0 0 0 0 0 0
0 0 0 0 0 0 0 0 0 0 0 0 0 0 0 0 0 0 0 1 1 0 0 1 1 1 1 1 1 1 1 1 1 1 1 1 0 0 0 0 0 0 0 0
0 0 0 0 0 0 0 0 0 0 0 0 0 0 0 0 0 0 0 1 0 0 0 1 1 1 1 1 1 1 1 1 1 1 1 1 1 1 1 0 0 0 0 0
0 0 0 0 0 0 0 0 0 0 0 0 0 0 0 0 0 0 0 0 0 0 1 1 1 1 1 1 1 1 1 1 1 1 1 1 1 1 1 1 1 1 0 0
0 0 0 0 0 0 0 0 0 0 0 0 0 0 0 0 0 0 0 0 0 1 1 1 1 1 1 1 1 1 1 1 1 1 1 1 1 1 1 1 1 1 1 0
0 0 0 0 0 0 0 0 0 0 0 0 0 0 0 0 0 0 0 0 0 1 1 1 1 1 1 1 1 1 1 1 1 2 2 1 1 1 1 1 1 1 1 1
-0 0 0 0 0 0 0 0 0 0 0 0 0 0 1 1 0 0 0 1 1 1 1 1 1 1 1 1 1 1 1 1 1 2 1 1 1 1 1 1 1 1 1 1
0 0 0 0 0 0 0 0 0 0 0 0 0 0 1 1 1 1 1 1 1 1 1 1 1 1 1 1 1 1 1 1 1 1 1 1 1 1 1 1 1 1 1 1
0 0 0 0 0 0 0 0 0 0 0 0 0 1 1 1 1 1 1 1 1 1 1 1 1 1 1 1 1 1 1 1 1 1 1 1 1 1 1 1 1 1 1 1
0 0 0 0 0 0 0 0 0 0 0 0 0 1 1 1 1 1 1 2 2 2 2 2 1 1 1 1 1 1 1 1 1 1 1 1 1 1 1 1 1 1 1 1
0 0 0 0 0 0 0 0 0 0 0 0 1 1 1 1 1 1 1 2 2 2 2 1 1 1 1 1 1 1 1 1 1 1 1 1 1 2 1 1 1 1 1 1
0 0 0 0 0 0 0 0 0 0 0 1 1 1 1 1 1 1 1 2 2 2 2 1 1 1 1 1 1 1 1 1 2 2 2 2 2 2 1 1 1 1 1 1
0 0 0 0 0 0 0 0 0 0 0 0 1 1 1 1 1 1 1 2 2 2 1 1 1 1 1 1 1 1 1 2 2 2 2 2 2 2 2 1 1 1 1 1
0 0 0 0 0 0 0 0 0 0 0 0 0 0 0 1 1 1 1 1 1 1 1 1 1 1 1 1 1 1 1 2 2 2 2 2 2 2 1 1 1 1 1 0
0 0 0 0 0 0 0 0 0 0 0 0 0 0 0 0 0 1 1 1 1 1 1 1 1 1 1 1 1 1 1 1 2 2 2 2 2 1 1 1 1 1 0 0
0 0 0 0 0 0 0 0 0 0 0 0 0 1 0 0 0 1 1 1 1 1 1 1 1 1 1 1 1 1 1 1 2 2 2 1 1 1 1 1 1 0 0 0
0 0 0 0 0 0 0 0 0 0 0 0 0 0 0 0 0 0 1 1 0 0 1 1 1 1 1 1 1 1 1 1 2 1 1 1 1 1 1 1 0 0 0 0
0 0 0 0 0 0 0 0 0 0 0 0 0 0 0 0 0 0 0 0 0 0 0 1 1 1 1 1 1 1 1 1 1 1 1 1 1 1 0 0 0 0 0 0
0 0 0 0 0 0 0 0 0 0 0 0 0 0 0 0 0 0 0 0 0 0 0 0 0 1 1 1 1 1 1 1 1 1 1 1 1 0 0 0 0 0 0 0
Wind_Speed
2 2 4 8 7 8 6 4 6 7 4 3 3 4 8 10 9 10 10 11 11 11 10 11 12 13 11 10 9 8 8 7 5 3 3 3 3 3 3 4 6 6 6 6
3 5 10 8 6 5 4 5 6 7 4 2 2 2 5 9 13 14 14 13 12 10 9 11 11 12 12 12 11 9 9 8 7 5 4 3 3 3 3 3 4 5 6 6
7 9 7 6 6 5 6 5 6 5 2 2 4 2 3 5 6 8 11 12 13 14 14 13 13 12 12 12 12 11 10 9 8 6 3 3 2 1 1 2 3 4 6 6
7 9 7 7 8 6 7 8 6 3 1 2 3 1 6 4 4 7 9 9 11 12 12 11 12 12 13 13 12 10 10 9 7 7 6 6 5 4 4 3 3 4 5 5
7 5 6 7 9 6 8 7 4 2 3 1 1 3 6 2 3 6 9 10 10 11 12 12 12 13 12 11 11 10 9 8 8 7 8 6 5 4 2 3 3 3 3 4
8 6 6 7 7 6 5 1 4 5 5 1 4 4 5 4 7 7 7 8 9 10 11 11 10 9 9 10 10 10 10 9 8 8 7 7 7 6 5 4 4 3 2 3
8 7 5 3 3 6 1 5 4 5 4 5 3 3 7 7 6 8 9 8 7 8 9 9 9 9 9 11 11 10 11 10 9 8 8 8 7 7 7 6 6 5 3 3
3 7 6 3 5 6 4 9 8 5 5 5 2 3 6 6 4 5 6 7 6 6 7 9 10 11 11 11 11 11 11 11 10 10 9 7 7 5 5 5 5 5 5 4
4 8 7 5 4 5 3 4 9 8 3 1 3 3 4 2 2 5 5 6 6 7 8 8 8 9 9 11 12 13 12 10 10 10 9 7 7 6 5 5 5 4 4 4
6 5 7 6 2 2 5 5 6 6 5 2 3 3 4 3 2 4 6 6 5 5 6 7 6 8 8 8 9 9 10 10 9 9 9 8 6 6 5 4 5 5 5 5
3 4 6 4 1 3 1 1 4 4 6 7 3 6 5 7 6 5 6 7 6 5 6 6 5 6 7 7 7 9 9 8 7 8 8 7 7 6 5 4 5 5 4 5
0 4 3 7 6 3 3 4 6 4 4 5 5 7 3 5 5 6 6 7 7 6 5 4 5 5 5 6 6 8 9 9 8 8 7 7 6 6 6 6 5 5 5 5
1 5 2 8 8 7 3 1 2 4 3 4 4 6 1 3 3 5 7 7 7 6 5 4 3 3 4 4 5 5 7 7 7 7 7 7 6 6 7 6 5 5 4 4
3 4 6 7 6 4 4 6 1 4 3 4 6 6 3 4 5 4 5 6 7 7 6 5 4 3 3 4 4 4 4 5 7 7 6 6 6 6 6 5 5 5 4 4
4 2 1 3 4 3 4 6 5 2 5 6 6 7 8 7 7 7 7 6 6 6 6 6 4 3 4 4 4 4 3 4 5 5 6 6 5 5 5 5 5 4 4 4
4 1 2 4 4 4 4 5 4 2 1 2 3 1 3 3 4 5 6 7 6 6 6 5 4 4 4 4 4 4 3 3 4 5 5 5 5 5 5 5 5 4 4 3
2 2 2 3 5 4 4 3 1 1 0 3 3 4 5 4 4 6 7 7 7 6 5 5 4 4 3 3 4 4 3 2 3 4 4 4 5 5 5 5 4 4 4 3
4 2 2 1 3 3 6 3 3 4 4 2 3 4 5 6 4 3 4 6 6 6 6 5 4 3 3 4 3 3 3 3 4 4 4 4 4 4 4 4 4 4 3 3
6 6 3 2 2 5 4 3 2 2 3 3 4 3 4 5 6 3 1 3 5 5 5 4 4 4 3 4 4 4 3 3 4 4 3 3 4 4 4 4 4 3 3 2
3 5 4 3 2 4 5 5 1 4 2 3 3 4 3 5 3 2 1 3 3 4 4 4 4 4 4 3 4 4 3 3 3 3 3 3 3 4 4 4 3 2 2 3
3 2 2 3 3 5 5 6 4 3 3 3 1 4 3 3 4 4 2 2 3 3 4 5 4 3 3 4 5 4 3 2 2 3 3 3 3 3 3 3 3 2 2 2
2 1 2 2 3 6 5 4 3 3 2 0 1 2 3 4 5 4 3 3 3 3 4 4 4 3 2 3 5 4 3 2 2 2 2 2 2 2 3 3 2 2 2 2
1 4 4 4 5 5 1 2 2 3 2 0 1 2 4 5 4 3 3 2 2 3 3 3 4 3 2 2 4 4 2 2 3 3 2 2 1 1 2 2 2 1 1 1
3 2 1 1 3 2 1 1 1 1 2 2 2 2 3 4 4 3 2 2 2 2 2 2 4 3 2 1 2 3 3 3 3 4 3 2 2 1 1 1 1 2 1 2
4 2 1 3 4 3 3 2 1 2 4 4 4 3 3 2 2 2 1 2 1 1 1 2 3 3 2 2 1 2 3 3 3 3 2 1 1 1 1 1 0 1 1 2
4 4 4 6 5 3 4 3 1 4 3 3 3 2 2 2 2 2 1 1 1 1 1 2 2 2 1 2 2 2 2 3 3 2 2 1 1 1 1 1 1 3 1 2
Wind_Direction
288 88 233 236 216 210 228 251 263 263 242 159 199 194 178 177 177 174 175 174 176 187 185 172 169 168 164 164 164 166 165 170 163 156 158 159 170 173 174 184 181 176 172 169
357 259 235 235 239 233 242 264 269 278 260 179 138 227 193 181 186 183 176 177 177 175 177 176 171 170 171 172 173 170 172 174 173 174 169 167 163 172 180 183 179 179 174 171
220 240 240 233 247 250 261 236 244 239 293 51 106 326 254 207 183 183 185 180 176 176 179 179 176 175 174 178 179 178 178 176 177 171 152 144 117 116 154 173 185 187 180 182
241 242 244 247 248 224 253 245 234 228 123 273 131 224 274 221 183 184 186 186 181 180 176 179 179 177 181 184 181 178 175 174 175 168 163 162 169 182 194 185 186 188 183 181
252 237 229 241 245 227 230 235 235 222 150 52 38 138 271 270 200 199 189 188 189 182 177 181 183 184 183 181 179 175 170 173 174 170 170 172 178 184 177 170 175 184 188 186
251 253 219 228 247 238 232 352 10 46 70 336 242 164 261 228 209 198 187 185 186 182 180 185 184 177 175 176 177 175 172 177 177 174 174 177 178 178 171 177 181 185 187 191
296 292 268 232 286 303 55 91 26 358 7 255 249 152 241 240 200 186 182 176 174 173 177 182 181 178 179 178 177 178 179 182 182 181 185 186 183 181 184 185 186 184 187 195
250 284 272 251 202 220 219 144 159 194 222 261 306 207 247 255 200 173 169 157 156 159 172 180 181 179 179 178 176 177 185 188 186 187 192 193 187 186 190 190 186 189 194 196
198 255 276 265 230 173 191 187 172 148 179 207 261 267 305 322 128 138 140 136 158 172 165 173 173 174 178 184 184 183 185 186 189 190 188 193 194 191 190 189 186 189 192 192
176 244 284 291 354 320 176 170 99 116 148 224 268 233 222 234 206 145 138 141 161 167 162 160 159 168 178 187 186 180 181 188 188 187 187 190 192 191 186 182 190 190 193 194
141 175 290 334 221 245 329 82 115 130 153 159 217 260 218 191 185 156 159 148 146 148 158 158 162 173 167 167 175 181 183 183 186 188 185 185 182 182 181 186 199 198 194 192
310 132 252 265 262 225 163 171 141 153 227 168 172 252 245 168 162 145 148 145 139 140 134 139 154 158 155 166 183 194 188 185 187 189 185 188 181 177 188 199 202 201 201 201
24 102 36 332 336 2 29 35 135 141 137 164 175 248 268 117 123 134 136 143 141 134 121 109 124 140 154 163 178 183 185 185 182 184 185 187 187 189 194 198 197 196 197 203
67 101 153 199 235 276 309 312 300 120 154 207 207 204 227 169 157 150 135 140 143 140 135 128 131 138 147 144 146 155 158 173 177 179 182 188 189 190 189 190 191 191 187 191
67 93 224 233 256 284 298 306 307 245 195 196 215 192 207 194 174 162 145 136 129 134 133 133 136 143 139 128 127 136 143 158 169 173 180 186 182 177 176 180 191 188 185 189
36 76 16 326 320 335 314 307 303 297 254 176 141 206 209 170 131 126 135 134 132 138 140 135 127 124 131 138 142 135 144 158 156 166 177 172 172 176 181 189 191 185 191 184
340 77 59 291 311 357 299 294 357 26 307 158 189 207 154 128 146 162 160 149 144 142 139 141 143 137 140 141 138 143 151 143 147 159 162 162 167 173 180 186 187 190 192 176
179 137 149 241 7 249 250 295 73 76 35 46 116 150 148 149 153 139 145 144 143 141 142 146 143 140 137 125 117 130 129 139 145 143 148 155 154 164 174 178 192 193 177 172
169 152 147 148 207 269 297 321 348 80 352 16 99 101 107 106 77 49 64 119 142 144 143 139 138 139 124 114 111 101 115 129 131 138 155 160 157 162 168 172 179 178 167 189
65 118 136 157 183 234 263 291 275 93 353 340 96 108 115 94 93 251 320 86 100 114 119 119 116 110 113 120 113 110 122 127 144 159 162 152 154 162 167 170 167 166 161 181
10 19 161 183 210 253 276 308 35 114 223 295 124 128 123 144 179 195 159 105 107 117 121 118 116 123 141 144 128 128 120 145 178 155 136 137 149 159 161 156 153 156 164 170
202 197 216 165 197 250 301 26 97 200 231 295 95 118 110 116 118 130 127 114 96 101 112 122 131 139 139 138 133 135 145 177 148 127 128 131 141 154 144 141 151 163 166 167
201 198 193 188 217 244 298 126 185 152 122 91 106 101 115 113 120 132 120 111 102 113 132 141 139 128 116 130 131 137 167 152 130 123 127 130 120 125 146 155 158 165 167 170
308 357 81 330 279 286 331 61 45 89 95 72 72 96 114 129 133 130 125 130 112 95 127 122 120 123 127 130 132 155 161 149 138 140 145 141 126 107 86 117 152 169 179 180
266 327 330 280 281 333 327 326 132 99 83 74 59 67 80 100 113 128 149 143 119 80 39 92 123 137 162 163 158 169 159 148 141 145 144 143 144 146 110 59 23 216 230 212
244 215 213 242 245 229 275 292 135 114 104 97 82 50 59 99 112 112 156 149 114 103 80 95 116 142 171 174 188 201 182 158 143 137 142 148 143 140 140 123 30 20 10 9